Location: Exeidioux
(45.6312°N, 1.6819°E)
Time: 06:05:14
(UTC+00:00)

USA 308 - Pass Details

Date: 03 March 2021
Orbit: 571 x 574 km, 54.0° (Epoch: 10 April)

Event Time Altitude Azimuth Distance (km) Brightness Sun altitude
Rises 20:06:25 0° 298° (WNW) 2,781 7.7 -25.6°
Reaches altitude 10° 20:08:55 10° 309° (NW) 1,881 6.4 -26.0°
Enters shadow 20:12:07 28° 356° (N) 1,086 4.4 -26.5°
